Regional Weather Roundup
Issued by NWS

Home | Current Version | Previous Version | Graphics & Text | Print | Product List | Glossary On
Versions: 1 2 3 4 5 6 7 8 9 10 11 12 13 14 15 16 17 18 19 20 21 22 23 24 25 26 27 28
000
ASUS45 KBOI 021810
RWRID

IDAHO REGIONAL WEATHER ROUNDUP
NATIONAL WEATHER SERVICE BOISE ID
1200 PM MDT MON MAY 02 2016

NOTE: "FAIR" INDICATES FEW OR NO CLOUDS BELOW 12000 FEET
WITH NO SIGNIFICANT WEATHER AND/OR OBSTRUCTIONS TO VISIBILITY

IDZ012-014-021900-
SOUTHWEST IDAHO


CITY           SKY/WX    TMP DP  RH WIND       PRES   REMARKS
BOISE          SUNNY     68  32  26 S8        30.18S
CALDWELL       SUNNY     68  37  32 E12       30.17F
MOUNTAIN HOME  SUNNY     66  27  22 E13G23    30.18F
$$

IDZ016-017-021900-
SOUTHCENTRAL IDAHO


CITY           SKY/WX    TMP DP  RH WIND       PRES   REMARKS
BURLEY         SUNNY     59  31  34 E3        30.21S
JEROME         SUNNY     62  28  27 NE12      30.22S
TWIN FALLS     SUNNY     60  29  30 N5        30.21S
$$

IDZ019>023-021900-
SOUTHEAST IDAHO


CITY           SKY/WX    TMP DP  RH WIND       PRES   REMARKS
IDAHO FALLS    SUNNY     58  22  24 SW7       30.25F
POCATELLO      SUNNY     59  23  25 SW3       30.25S
REXBURG        SUNNY     57  22  25 VRB3      30.26S
$$

IDZ006-010-011-018-031-032-021900-
CENTRAL IDAHO MOUNTAINS


CITY           SKY/WX    TMP DP  RH WIND       PRES   REMARKS
MCCALL         SUNNY     61  36  39 SW3       30.19F
HAILEY         SUNNY     55  36  47 SE8       30.26S
STANLEY          N/A     56  22  26 VRB6      30.26F
SALMON           N/A    N/A N/A N/A MISG        N/A
CHALLIS        SUNNY     59  26  28 N3        30.23F
$$

IDZ002-004-006-007-026-021900-
NORTHERN IDAHO


CITY           SKY/WX    TMP DP  RH WIND       PRES   REMARKS
LEWISTON       SUNNY     68  48  48 NE5       30.11F
LOWELL           N/A     67  41  38 CALM      30.13F
COEUR D`ALENE  SUNNY     68  43  40 NE5       30.12S
MULLAN PASS    SUNNY     57  28  33 CALM      30.24S
$$




USA.gov is the U.S. government's official web portal to all federal, state and local government web resources and services.